Regional Weather Roundup
Issued by NWS

Home | Current Version | Previous Version | Graphics & Text | Print | Product List | Glossary On
Versions: 1 2 3 4 5 6 7 8 9 10 11 12 13 14 15 16 17 18 19 20 21 22 23 24 25 26 27 28 29 30 31 32 33 34 35 36 37 38 39 40 41 42 43 44 45 46 47 48 49 50
000
ASUS43 KLMK 031302
RWRKY
KENTUCKY REGIONAL WEATHER ROUNDUP
NATIONAL WEATHER SERVICE LOUISVILLE KY
900 AM EDT THU SEP 03 2015

NOTE "FAIR" INDICATES FEW OR NO CLOUDS BELOW 12,000 FEET
WITH NO SIGNIFICANT WEATHER AND/OR OBSTRUCTIONS TO VISIBILITY.

KYZ001>023-026-027-061>063-070>075-031400-
WESTERN AND SOUTH CENTRAL KENTUCKY

CITY           SKY/WX    TMP DP  RH WIND       PRES   REMARKS
PADUCAH        SUNNY     73  69  87 CALM      30.04R FOG
HENDERSON      SUNNY     73  68  83 CALM      30.04R
OWENSBORO      SUNNY     75  70  85 CALM      30.06R
HOPKINSVILLE   SUNNY     73  68  85 CALM      30.05R
BOWLING GREEN  SUNNY     73  68  84 CALM      30.06R
GLASGOW        SUNNY     70  70 100 CALM      30.06R
$$

KYZ024-025-028>034-038-045-046-053-031400-
NORTH CENTRAL KENTUCKY

CITY           SKY/WX    TMP DP  RH WIND       PRES   REMARKS
LOUISVILLE/SDF MOSUNNY   77  69  76 CALM      30.05R HAZE
LOUISVILLE/LOU SUNNY     76  70  82 NW3       30.06R HAZE
FORT KNOX      SUNNY     72  68  89 CALM      30.05R FOG
$$

KYZ035>037-039>044-047>052-055>060-089>105-031400-
NORTHEAST KENTUCKY

CITY           SKY/WX    TMP DP  RH WIND       PRES   REMARKS
LEXINGTON      SUNNY     73  68  84 CALM      30.07S HAZE
COVINGTON      MOSUNNY   73  70  90 CALM      30.06R
FRANKFORT      SUNNY     73  68  84 CALM      30.05S HAZE
$$

KYZ054-064>069-076>088-106>120-031400-
SOUTHEAST KENTUCKY

CITY           SKY/WX    TMP DP  RH WIND       PRES   REMARKS
JACKSON        SUNNY     73  67  81 CALM      30.09R
LONDON         SUNNY     69  65  86 CALM      30.09R
SOMERSET       NOT AVBL
MIDDLESBORO    CLOUDY    66  66 100 CALM      30.09S FOG
MONTICELLO     MOSUNNY   72  69  90 CALM      30.10R
$$




USA.gov is the U.S. government's official web portal to all federal, state and local government web resources and services.